Location: Newark
(45.2500°N, 7.5833°E)
Time: 15:17:34
(UTC+00:00)

SR - Pass Details

Date: 01 February 2020
Orbit: 575 x 881 km, 66.7° (Epoch: 17 February)

Event Time Altitude Azimuth Distance (km) Brightness Sun altitude
Exits shadow 05:27:57 17° 311° (NW) 1,901 ? -14.8°
Maximum altitude 05:31:45 44° 246° (WSW) 1,035 ? -14.1°
Drops below altitude 10° 05:36:29 10° 175° (S) 2,182 ? -13.3°
Sets 05:38:48 0° 169° (S) 3,046 ? -12.9°
